�������l�o���
Date,Time,MP-1(��Sv/h),MP-2(��Sv/h),MP-3(��Sv/h),MP-4(��Sv/h),MP-5(��Sv/h),MP-6(��Sv/h),MP-7(��Sv/h),MP-8(��Sv/h),����,����(m/s),���J
2023/09/29,00:00,0.519,0.787,0.486,0.976,0.701,0.318,0.568,0.529,�k�k��,5.9,��
2023/09/29,00:10,0.519,0.786,0.487,0.974,0.698,0.317,0.567,0.530,�k��,5.8,��
2023/09/29,00:20,0.519,0.783,0.486,0.976,0.700,0.318,0.567,0.529,�k��,5.6,��
2023/09/29,00:30,0.519,0.786,0.487,0.974,0.700,0.316,0.566,0.530,�k��,5.2,��
2023/09/29,00:40,0.518,0.786,0.487,0.976,0.700,0.318,0.565,0.531,�k��,5.9,��
2023/09/29,00:50,0.519,0.787,0.485,0.973,0.699,0.321,0.568,0.530,�k��,7.6,��
2023/09/29,01:00,0.518,0.787,0.488,0.976,0.698,0.319,0.568,0.531,�k��,7.0,��
2023/09/29,01:10,0.518,0.784,0.487,0.976,0.701,0.317,0.567,0.530,�k��,6.8,��
2023/09/29,01:20,0.519,0.786,0.485,0.976,0.700,0.317,0.568,0.531,�k��,6.2,��
2023/09/29,01:30,0.519,0.785,0.487,0.978,0.701,0.317,0.568,0.531,�k��,6.1,��
2023/09/29,01:40,0.519,0.786,0.486,0.974,0.701,0.317,0.566,0.530,�k��,5.4,��
2023/09/29,01:50,0.518,0.786,0.486,0.974,0.701,0.317,0.567,0.530,���k��,5.0,��
2023/09/29,02:00,0.518,0.786,0.487,0.975,0.701,0.319,0.568,0.531,�k��,4.7,��
2023/09/29,02:10,0.517,0.786,0.486,0.976,0.700,0.318,0.567,0.531,���k��,4.5,��
2023/09/29,02:20,0.521,0.785,0.485,0.977,0.701,0.318,0.568,0.529,�k��,3.9,��
2023/09/29,02:30,0.519,0.787,0.486,0.976,0.701,0.320,0.569,0.531,���k��,3.3,��
2023/09/29,02:40,0.519,0.788,0.487,0.973,0.699,0.318,0.568,0.530,�k��,3.5,��
2023/09/29,02:50,0.519,0.786,0.486,0.977,0.700,0.319,0.568,0.530,���k��,3.1,��
2023/09/29,03:00,0.518,0.786,0.487,0.974,0.701,0.318,0.569,0.530,���k��,3.3,��
2023/09/29,03:10,0.517,0.786,0.487,0.976,0.701,0.319,0.568,0.530,�k��,3.2,��
2023/09/29,03:20,0.519,0.787,0.486,0.977,0.702,0.318,0.567,0.529,�k��,2.8,��
2023/09/29,03:30,0.518,0.785,0.485,0.975,0.700,0.319,0.569,0.529,���k��,3.0,��
2023/09/29,03:40,0.519,0.786,0.487,0.977,0.700,0.319,0.568,0.529,�k��,2.9,��
2023/09/29,03:50,0.519,0.784,0.486,0.974,0.701,0.318,0.567,0.529,���k��,3.5,��
2023/09/29,04:00,0.519,0.785,0.486,0.977,0.700,0.318,0.568,0.529,���k��,2.5,��
2023/09/29,04:10,0.519,0.783,0.486,0.976,0.698,0.319,0.568,0.529,���k��,3.5,��
2023/09/29,04:20,0.518,0.784,0.486,0.977,0.700,0.319,0.568,0.530,���k��,2.3,��
2023/09/29,04:30,0.519,0.786,0.485,0.977,0.699,0.318,0.568,0.530,���k��,3.6,��
2023/09/29,04:40,0.518,0.786,0.486,0.978,0.699,0.317,0.568,0.531,��,4.1,��
2023/09/29,04:50,0.518,0.788,0.486,0.977,0.699,0.319,0.569,0.531,��,3.7,��
2023/09/29,05:00,0.520,0.788,0.486,0.979,0.701,0.319,0.568,0.531,��,3.2,��
2023/09/29,05:10,0.519,0.786,0.485,0.977,0.702,0.318,0.570,0.528,��,3.8,��
2023/09/29,05:20,0.517,0.786,0.485,0.976,0.699,0.319,0.569,0.529,���k��,4.3,��
2023/09/29,05:30,0.520,0.785,0.485,0.977,0.701,0.318,0.570,0.528,���k��,4.9,��
2023/09/29,05:40,0.519,0.785,0.484,0.977,0.700,0.317,0.569,0.529,�k��,4.3,��
2023/09/29,05:50,0.518,0.785,0.485,0.977,0.700,0.318,0.569,0.529,�k�k��,2.3,��
2023/09/29,06:00,0.516,0.785,0.487,0.977,0.699,0.318,0.570,0.530,�k�k��,5.1,��
2023/09/29,06:10,0.519,0.787,0.486,0.979,0.698,0.319,0.569,0.531,�k�k��,5.6,��
2023/09/29,06:20,0.519,0.787,0.486,0.978,0.700,0.316,0.570,0.530,�k�k��,5.7,��
2023/09/29,06:30,0.519,0.786,0.485,0.978,0.699,0.318,0.569,0.529,�k��,5.6,��
2023/09/29,06:40,0.520,0.785,0.485,0.979,0.701,0.319,0.569,0.528,�k�k��,5.7,��
2023/09/29,06:50,0.520,0.786,0.487,0.978,0.699,0.317,0.570,0.531,�k�k��,5.2,��
2023/09/29,07:00,0.518,0.787,0.486,0.978,0.700,0.317,0.571,0.529,�k�k��,4.6,��
2023/09/29,07:10,0.519,0.784,0.484,0.978,0.700,0.317,0.570,0.529,�k�k��,4.8,��
2023/09/29,07:20,0.518,0.786,0.485,0.978,0.699,0.318,0.570,0.530,�k�k��,4.1,��
2023/09/29,07:30,0.517,0.784,0.484,0.978,0.699,0.317,0.571,0.530,�k��,4.2,��
2023/09/29,07:40,0.517,0.787,0.484,0.979,0.701,0.318,0.570,0.529,�k��,1.4,��
2023/09/29,07:50,0.519,0.786,0.485,0.978,0.699,0.319,0.569,0.530,�k��,1.2,��
2023/09/29,08:00,0.516,0.785,0.486,0.981,0.700,0.319,0.570,0.531,�k�k��,0.9,��
2023/09/29,08:10,0.518,0.784,0.486,0.976,0.702,0.317,0.570,0.531,���k��,1.4,��
2023/09/29,08:20,0.517,0.783,0.486,0.977,0.702,0.318,0.568,0.530,���k��,1.9,��
2023/09/29,08:30,0.516,0.787,0.485,0.980,0.700,0.318,0.568,0.529,���k��,2.3,��
2023/09/29,08:40,0.517,0.783,0.486,0.979,0.698,0.317,0.568,0.529,�쓌,0.8,��
2023/09/29,08:50,0.516,0.785,0.485,0.979,0.701,0.318,0.570,0.527,��,0.8,��
2023/09/29,09:00,0.517,0.783,0.484,0.979,0.699,0.317,0.569,0.529,���k��,2.3,��
2023/09/29,09:10,0.519,0.786,0.486,0.978,0.700,0.317,0.567,0.527,���쓌,3.3,��
2023/09/29,09:20,0.519,0.788,0.484,0.977,0.700,0.319,0.568,0.528,���쓌,3.3,��
2023/09/29,09:30,0.518,0.787,0.483,0.980,0.699,0.316,0.570,0.528,��,3.4,��
2023/09/29,09:40,0.520,0.787,0.484,0.979,0.702,0.316,0.569,0.529,���k��,2.3,��
2023/09/29,09:50,0.518,0.786,0.484,0.978,0.703,0.315,0.570,0.528,��,2.0,��
2023/09/29,10:00,0.517,0.787,0.486,0.979,0.704,0.315,0.569,0.529,��,2.6,��
2023/09/29,10:10,0.519,0.787,0.484,0.980,0.700,0.316,0.568,0.528,���쓌,1.5,��
2023/09/29,10:20,0.519,0.787,0.485,0.978,0.702,0.316,0.569,0.530,�쓌,2.6,��
2023/09/29,10:30,0.519,0.786,0.484,0.979,0.702,0.310,0.570,0.530,�쓌,3.0,��
2023/09/29,10:40,0.519,0.787,0.486,0.980,0.702,0.311,0.569,0.528,�쓌,2.2,��
2023/09/29,10:50,0.519,0.787,0.487,0.978,0.704,0.315,0.569,0.529,�쓌,3.6,��
2023/09/29,11:00,0.520,0.788,0.485,0.979,0.703,0.317,0.569,0.528,�쓌,3.7,��
2023/09/29,11:10,0.520,0.790,0.486,0.979,0.704,0.318,0.568,0.529,�쓌,4.1,��
2023/09/29,11:20,0.520,0.787,0.487,0.980,0.704,0.318,0.570,0.528,�쓌,3.3,��
2023/09/29,11:30,0.520,0.791,0.486,0.979,0.704,0.318,0.569,0.530,��쓌,3.1,��
2023/09/29,11:40,0.520,0.788,0.486,0.978,0.704,0.318,0.571,0.527,��쓌,3.5,��
2023/09/29,11:50,0.519,0.790,0.486,0.980,0.705,0.319,0.569,0.530,�쓌,3.6,��
2023/09/29,12:00,0.520,0.790,0.487,0.979,0.704,0.319,0.568,0.529,�쓌,4.1,��
2023/09/29,12:10,0.521,0.792,0.487,0.979,0.706,0.319,0.569,0.528,�쓌,4.3,��
2023/09/29,12:20,0.519,0.790,0.486,0.979,0.703,0.319,0.569,0.530,��쓌,3.3,��
2023/09/29,12:30,0.521,0.794,0.486,0.979,0.706,0.322,0.569,0.530,�쓌,4.6,��
2023/09/29,12:40,0.522,0.791,0.488,0.980,0.705,0.320,0.570,0.529,�쓌,5.5,��
2023/09/29,12:50,0.522,0.791,0.489,0.981,0.706,0.321,0.569,0.529,�쓌,4.2,��
2023/09/29,13:00,0.522,0.791,0.488,0.979,0.706,0.321,0.568,0.529,�쓌,3.8,��
2023/09/29,13:10,0.521,0.792,0.488,0.980,0.707,0.321,0.570,0.531,�쓌,4.6,��
2023/09/29,13:20,0.522,0.793,0.487,0.981,0.708,0.321,0.568,0.528,��쓌,3.1,��
2023/09/29,13:30,0.521,0.792,0.489,0.982,0.706,0.320,0.569,0.530,���쐼,2.6,��
2023/09/29,13:40,0.521,0.792,0.489,0.980,0.707,0.319,0.569,0.530,��,4.9,��
2023/09/29,13:50,0.523,0.791,0.490,0.981,0.708,0.320,0.568,0.531,��,5.2,��
2023/09/29,14:00,0.522,0.793,0.488,0.981,0.707,0.320,0.569,0.531,���쐼,6.1,��
2023/09/29,14:10,0.521,0.793,0.489,0.981,0.708,0.319,0.569,0.530,��,2.8,��
2023/09/29,14:20,0.521,0.793,0.488,0.983,0.709,0.320,0.570,0.529,��,2.0,��
2023/09/29,14:30,0.520,0.792,0.490,0.983,0.708,0.319,0.571,0.530,-,CALM,��
2023/09/29,14:40,0.521,0.793,0.490,0.981,0.708,0.320,0.571,0.529,��,1.4,��
2023/09/29,14:50,0.521,0.793,0.489,0.982,0.709,0.320,0.570,0.528,�k�k��,2.3,��
2023/09/29,15:00,0.522,0.795,0.489,0.986,0.708,0.318,0.570,0.530,�k��,2.6,��
2023/09/29,15:10,0.521,0.794,0.489,0.984,0.710,0.322,0.571,0.528,�k�k��,1.7,��
2023/09/29,15:20,0.522,0.793,0.487,0.986,0.706,0.320,0.570,0.529,�k,2.6,��
2023/09/29,15:30,0.521,0.792,0.488,0.983,0.709,0.320,0.572,0.529,�k,2.0,��
2023/09/29,15:40,0.524,0.795,0.489,0.981,0.708,0.321,0.571,0.529,�k�k��,3.1,��
2023/09/29,15:50,0.523,0.793,0.489,0.980,0.708,0.319,0.569,0.531,�k��,3.5,��
2023/09/29,16:00,0.523,0.793,0.489,0.983,0.709,0.320,0.570,0.529,�k��,3.4,��
2023/09/29,16:10,0.523,0.793,0.488,0.980,0.709,0.318,0.569,0.529,���k��,4.3,��
2023/09/29,16:20,0.520,0.793,0.488,0.980,0.707,0.319,0.569,0.530,��,3.6,��
2023/09/29,16:30,0.523,0.793,0.488,0.984,0.708,0.320,0.570,0.528,��,4.3,��
2023/09/29,16:40,0.521,0.794,0.487,0.986,0.709,0.319,0.570,0.529,���쓌,4.1,��
2023/09/29,16:50,0.523,0.794,0.487,0.985,0.708,0.318,0.570,0.529,���쓌,4.3,��
2023/09/29,17:00,0.521,0.794,0.489,0.983,0.709,0.318,0.570,0.528,�쓌,3.8,��
2023/09/29,17:10,0.523,0.794,0.489,0.982,0.710,0.319,0.569,0.530,���쓌,4.1,��
2023/09/29,17:20,0.523,0.794,0.488,0.982,0.708,0.318,0.569,0.530,�쓌,3.8,��
2023/09/29,17:30,0.523,0.793,0.488,0.983,0.709,0.318,0.567,0.530,�쓌,2.9,��
2023/09/29,17:40,0.522,0.793,0.488,0.983,0.708,0.318,0.570,0.530,�쓌,3.9,��
2023/09/29,17:50,0.521,0.792,0.488,0.983,0.707,0.317,0.569,0.530,�쓌,3.0,��
2023/09/29,18:00,0.520,0.796,0.489,0.983,0.709,0.318,0.570,0.530,��쓌,2.5,��
2023/09/29,18:10,0.521,0.794,0.489,0.982,0.710,0.318,0.570,0.529,��,1.5,��
2023/09/29,18:20,0.521,0.796,0.487,0.983,0.710,0.318,0.569,0.531,��,2.0,��
2023/09/29,18:30,0.520,0.795,0.488,0.985,0.709,0.318,0.569,0.531,��쓌,1.5,��
2023/09/29,18:40,0.522,0.797,0.489,0.985,0.711,0.319,0.570,0.532,��쐼,1.1,��
2023/09/29,18:50,0.524,0.795,0.489,0.985,0.710,0.318,0.569,0.530,���k��,1.5,��
2023/09/29,19:00,0.524,0.794,0.491,0.985,0.712,0.319,0.570,0.531,�k��,4.7,��
2023/09/29,19:10,0.524,0.796,0.491,0.986,0.710,0.318,0.572,0.531,���k��,3.6,�L
2023/09/29,19:20,0.524,0.796,0.491,0.985,0.711,0.319,0.570,0.531,�k��,4.4,�L
2023/09/29,19:30,0.522,0.796,0.491,0.985,0.712,0.319,0.569,0.531,�k��,5.0,��
2023/09/29,19:40,0.523,0.797,0.491,0.986,0.710,0.319,0.571,0.531,�k��,5.8,��
2023/09/29,19:50,0.524,0.799,0.491,0.986,0.710,0.321,0.571,0.531,�k��,5.9,��
2023/09/29,20:00,0.523,0.798,0.490,0.985,0.711,0.319,0.570,0.530,�k��,5.5,��
2023/09/29,20:10,0.522,0.796,0.492,0.987,0.711,0.319,0.569,0.530,�k��,5.4,��
2023/09/29,20:20,0.523,0.797,0.491,0.986,0.713,0.318,0.571,0.530,�k��,4.2,��
2023/09/29,20:30,0.523,0.798,0.493,0.986,0.712,0.319,0.570,0.532,�k��,3.9,��
2023/09/29,20:40,0.523,0.795,0.490,0.984,0.711,0.320,0.570,0.531,�k��,4.2,��
2023/09/29,20:50,0.523,0.797,0.492,0.984,0.712,0.319,0.572,0.532,�k��,4.6,��
2023/09/29,21:00,0.524,0.799,0.491,0.986,0.712,0.318,0.571,0.531,���k��,5.4,��
2023/09/29,21:10,0.524,0.798,0.491,0.986,0.712,0.320,0.572,0.532,�k��,4.4,��
2023/09/29,21:20,0.524,0.799,0.490,0.988,0.712,0.319,0.571,0.531,�k��,4.0,��
2023/09/29,21:30,0.525,0.797,0.490,0.988,0.711,0.319,0.571,0.532,�k��,4.5,��
2023/09/29,21:40,0.524,0.797,0.490,0.987,0.712,0.320,0.572,0.532,�k��,4.7,��
2023/09/29,21:50,0.523,0.798,0.489,0.988,0.711,0.319,0.570,0.531,�k��,4.3,��
2023/09/29,22:00,0.525,0.798,0.492,0.989,0.713,0.319,0.572,0.533,�k��,3.7,��
2023/09/29,22:10,0.524,0.799,0.491,0.987,0.711,0.320,0.572,0.531,�k�k��,2.8,��
2023/09/29,22:20,0.524,0.799,0.492,0.990,0.710,0.320,0.573,0.531,�k�k��,2.3,��
2023/09/29,22:30,0.524,0.799,0.491,0.987,0.710,0.322,0.573,0.533,�k��,2.0,��
2023/09/29,22:40,0.524,0.797,0.490,0.990,0.712,0.320,0.571,0.531,�k�k��,2.6,��
2023/09/29,22:50,0.522,0.799,0.490,0.987,0.711,0.320,0.572,0.531,�k�k��,2.6,��
2023/09/29,23:00,0.524,0.797,0.491,0.987,0.713,0.320,0.571,0.533,�k�k��,2.3,��
2023/09/29,23:10,0.524,0.798,0.491,0.991,0.711,0.319,0.573,0.532,�k�k��,1.2,��
2023/09/29,23:20,0.524,0.798,0.491,0.989,0.712,0.320,0.572,0.532,�k�k��,1.4,��
2023/09/29,23:30,0.523,0.798,0.493,0.990,0.711,0.320,0.572,0.532,�k�k��,1.7,��
2023/09/29,23:40,0.526,0.799,0.491,0.988,0.711,0.322,0.571,0.532,�k��,1.9,��
2023/09/29,23:50,0.525,0.800,0.491,0.988,0.711,0.319,0.572,0.532,�k�k��,2.3,��
